STOCKHOLM/BROMMA current weather conditions

sailwx.info

Wind from 240 at 6 knots

Air temperature 5.0° C
Visibility: greater than 5.4 NM
Dewpoint 2.0° C

Last reported at 2016-Dec-09 04:20 UTC.
Time now 2016-Dec-09 05:56 UTC

Location: N 59°21' E 017°57'.
View on Google Maps.

See reports from other nearby stations

  
Tides and Currents Weather Stations Pressure Air Temp Water Temp Dewpoint Dewpoint Depression Visibility Wind Speed Wind Dir Waves Ship Positions
date/time (UTC)wind fromknots sea level pressurealtimeterstation pressurevisibilityair tempwater tempwave heightnotes
2016-Dec-09 04:20 240 6 5.4 5.0
2016-Dec-09 03:50 240 6 5.4 5.0
2016-Dec-09 03:20 240 6 5.4 5.0
2016-Dec-09 02:50 240 5 5.4 5.0
2016-Dec-09 02:20 250 5 5.4 5.0
2016-Dec-09 01:50 250 6 5.4 6.0
2016-Dec-09 01:20 250 6 5.4 6.0
2016-Dec-09 00:50 260 6 5.4 6.0
2016-Dec-09 00:20 260 5 5.4 6.0
2016-Dec-08 23:50 270 6 5.4 7.0
2016-Dec-08 23:20 260 6 5.4 7.0
2016-Dec-08 22:50 270 9 5.4 7.0
2016-Dec-08 22:20 270 6 5.4 7.0
2016-Dec-08 21:50 270 7 5.4 7.0
2016-Dec-08 21:20 280 8 5.4 8.0
2016-Dec-08 20:50 270 8 5.4 8.0
2016-Dec-08 20:20 280 12 5.4 8.0
2016-Dec-08 19:50 270 12 5.4 7.0
2016-Dec-08 19:20 270 7 5.4 7.0
2016-Dec-08 18:50 270 7 5.4 7.0
2016-Dec-08 18:20 270 6 5.4 7.0
2016-Dec-08 17:50 280 6 5.4 7.0
2016-Dec-08 17:20 290 6 5.4 7.0
2016-Dec-08 16:50 290 8 5.4 7.0
2016-Dec-08 16:20 280 8 5.4 7.0
2016-Dec-08 15:50 280 11 5.4 8.0
2016-Dec-08 15:20 280 9 5.4 8.0
2016-Dec-08 14:50 270 12 5.4 9.0
2016-Dec-08 14:20 270 12 5.4 9.0
2016-Dec-08 13:50 270 13 5.4 9.0
2016-Dec-08 13:20 260 12 5.4 9.0
2016-Dec-08 12:50 260 13 5.410.0
2016-Dec-08 12:20 270 13 5.410.0
2016-Dec-08 11:50 260 13 5.410.0
2016-Dec-08 11:20 270 13 5.410.0
2016-Dec-08 10:50 260 12 5.4 9.0
2016-Dec-08 10:20 260 13 5.4 9.0
2016-Dec-08 09:50 250 12 5.4 9.0
2016-Dec-08 09:20 260 12 5.4 9.0
2016-Dec-08 08:50 260 13 5.4 9.0
2016-Dec-08 08:20 250 15 gusting 27 5.4 9.0
2016-Dec-08 07:50 260 12 5.4 9.0
2016-Dec-08 07:20 260 9 5.4 8.0
2016-Dec-08 06:50 260 12 2.7 8.0 Mist.
2016-Dec-08 06:20 260 11 2.3 8.0 Mist.
2016-Dec-08 05:50 250 11 3.8 8.0 Mist.
2016-Dec-08 05:20 260 8 3.2 8.0 Mist.
2016-Dec-08 04:50 250 9 3.8 7.0 Mist.
2016-Dec-08 04:20 250 9 2.0 7.0 Mist.
2016-Dec-08 03:50 260 6 1.8 7.0 Mist.
2016-Dec-08 03:20 260 6 2.7 7.0 Mist.
2016-Dec-08 02:50 260 6 2.7 6.0 Mist.
2016-Dec-08 02:20 220 2 0.4 5.0 Mist.
2016-Dec-08 01:50 210 5 0.6 5.0 Mist.
2016-Dec-08 01:20 250 5 1.2 5.0 Mist.
2016-Dec-08 00:50 260 7 0.9 5.0 Mist.
2016-Dec-08 00:20 250 6 2.7 4.0 Mist.
2016-Dec-07 23:50 240 7 5.4 4.0 Precipitation.
2016-Dec-07 23:20 240 7 5.4 4.0 Light drizzle.
2016-Dec-07 22:50 240 7 5.4 4.0 Light rain.
2016-Dec-07 22:20 240 7 5.4 4.0 Light rain.
2016-Dec-07 21:50 230 8 5.4 3.0 Precipitation.
2016-Dec-07 21:20 230 7 5.4 3.0
2016-Dec-07 20:50 230 7 5.4 3.0
2016-Dec-07 20:20 220 8 4.9 3.0 Light drizzle.
2016-Dec-07 19:50 220 6 5.4 3.0
2016-Dec-07 19:20 210 7 4.9 2.0 Mist.
2016-Dec-07 18:50 200 6 4.9 2.0 Light drizzle.
2016-Dec-07 18:20 220 6 4.9 2.0 Light rain.
2016-Dec-07 17:50 200 6 5.4 2.0 Light rain.
2016-Dec-07 17:20 190 7 5.4 2.0 Light rain.
2016-Dec-07 16:50 210 8 4.9 2.0 Light rain.
2016-Dec-07 16:20 210 7 5.4 2.0 Light rain.
2016-Dec-07 15:50 220 8 5.4 2.0 Light rain.
2016-Dec-07 15:20 220 9 5.4 3.0 Light rain.
2016-Dec-07 14:50 220 8 5.4 2.0
2016-Dec-07 14:20 220 9 5.4 2.0
2016-Dec-07 13:50 220 9 5.4 3.0
2016-Dec-07 13:20 220 12 5.4 3.0
2016-Dec-07 12:50 220 12 5.4 2.0
2016-Dec-07 12:20 220 8 5.4 2.0
2016-Dec-07 11:50 220 9 5.4 3.0
2016-Dec-07 11:20 220 8 5.4 3.0
2016-Dec-07 10:50 230 9 5.4 2.0
2016-Dec-07 10:20 210 7 5.4 2.0
2016-Dec-07 09:50 210 8 5.4 2.0
2016-Dec-07 09:20 220 7 5.4 1.0
2016-Dec-07 08:50 220 7 5.4 2.0
2016-Dec-07 08:20 230 7 5.4 1.0
2016-Dec-07 07:50 220 7 5.4 1.0
2016-Dec-07 07:20 230 6 5.4-0.0
2016-Dec-07 06:50 220 7 5.4-0.0
2016-Dec-07 06:20 230 6 5.4-0.0
2016-Dec-07 05:50 230 7 5.4-0.0
2016-Dec-07 05:20 230 8 5.4-0.0